Location: Oshawa
(43.9000°N, 78.8670°W)
Time: 14:49:56
(UTC-04:00)

Iridium 54 - Visible Passes

Search period start: 29 July 2014 00:00
Search period end: 08 August 2014 00:00
Orbit: 776 x 779 km, 86.4° (Epoch: 29 July)

Date Brightness Start Highest point End Pass type
(mag) Time Alt. Az. Time Alt. Az. Time Alt. Az.
29 Jul 7.9 22:16:53 10° NNW 22:20:50 22° W 22:24:47 10° SW visible
30 Jul 7.0 21:42:44 10° NNW 21:47:33 39° W 21:52:21 10° SSW visible
31 Jul 5.9 21:08:57 10° N 21:14:09 71° W 21:19:18 10° S visible
01 Aug 8.3 22:17:41 10° NW 22:20:44 16° WNW 22:23:46 10° WSW visible
02 Aug 7.6 21:43:09 10° NNW 21:47:31 28° W 21:51:52 10° SW visible
03 Aug 6.6 21:09:10 10° NNW 21:14:11 49° W 21:19:10 10° SSW visible
04 Aug 8.7 22:19:17 10° WNW 22:20:34 11° WNW 22:21:51 10° W visible
05 Aug 8.2 21:43:44 10° NW 21:47:26 20° W 21:51:07 10° SW visible
06 Aug 7.3 21:09:29 10° NNW 21:14:10 35° W 21:18:50 10° SSW visible
